Regional Weather Roundup
Issued by NWS Newport/Morehead, NC

Current Version | Previous Version | Text Only | Print | Product List | Glossary Off
Versions: 1 2 3 4 5 6 7 8 9 10 11 12 13 14 15 16 17 18 19 20 21 22 23 24 25 26 27 28 29 30 31 32 33 34 35 36 37 38 39 40 41 42 43 44 45 46 47 48 49 50
000 ASUS42 KMHX 220910 RWRMHX WEATHER ROUNDUP FOR EASTERN NORTH CAROLINA NATIONAL WEATHER SERVICE NEWPORT/MOREHEAD CITY NC 500 AM EDT WED OCT 22 2014 NOTE: "FAIR" INDICATES FEW OR NO CLOUDS BELOW 12,000 FEET WITH NO SIGNIFICANT WEATHER AND/OR OBSTRUCTIONS TO VISIBILITY NCZ015>017-031-032-045>047-102-103-221000- NORTH COAST CITY SKY/WX TMP DP RH WIND PRES REMARKS EDENTON CLOUDY 55 53 94 NW7 29.84R ELIZABETH CITY LGT RAIN 56 51 84 NW9 29.81S KITTY HAWK CLOUDY 58 56 91 NW8G18 29.78S MANTEO CLOUDY 59 55 87 NW9 29.80S $$ NCZ045>047-081-094-103-104-221000- CENTRAL COAST CITY SKY/WX TMP DP RH WIND PRES REMARKS FRISCO CLOUDY 61 55 81 NW13G22 29.81R SWANQUARTER N/A 55 N/A N/A NW7G15 29.79S $$ NCZ095-097-098-100-101-221000- SOUTHERN COAST CITY SKY/WX TMP DP RH WIND PRES REMARKS BEAUFORT MOCLDY 58 48 69 NW14 29.86R CEDAR ISLAND N/A 61 N/A N/A NW16G28 29.85S JACKSONVILLE PTCLDY 54 43 66 NW7 29.88R PINEY ISLAND CLOUDY 60 48 64 NW15 29.84R WILMINGTON PTCLDY 54 42 64 NW10 29.90R $$ NCZ011>013-027>030-043-044-078>080-089-090>093-098-221000- COASTAL PLAIN CITY SKY/WX TMP DP RH WIND PRES REMARKS AHOSKIE CLOUDY 51 49 92 W3 29.88R CLINTON CLEAR 52 44 74 NW3 29.92R ELIZABETHTOWN CLEAR 53 42 66 NW8 29.92S GOLDSBORO CLEAR 53 46 78 NW6 29.89R GREENVILLE MOCLDY 54 45 71 NW7 29.91R HAVELOCK PTCLDY 56 43 61 NW10 29.87R KENANSVILLE CLEAR 53 41 65 NW6 29.91R KINSTON CLEAR 53 44 70 NW7 29.90R NEW BERN PTCLDY 57 43 59 NW10 29.88S RICHLANDS MOCLDY 54 41 62 W3 29.89S ROCKY MOUNT CLOUDY 51 47 86 NW6 29.90S WASHINGTON MOCLDY 52 46 79 NW6 29.88R WHITEVILLE CLEAR 54 41 62 CALM 29.92S $$ AMZ130-135-150-152-154-156-158-170-250-252-270-ANZ085-086-088-633-658-670-221000- MARINE OBSERVATIONS STATION/POSITION TIME TEMP WIND PRES WAVE SWELL AIR SEA DIR/SP/G HT/PER HT/PER (UTC) (F) (DEG/KT/KT) (MB) (FT/S) (FT/S) CHESAPEAKE LIGHT 0800 61 280/ 20/ 21 1009.7 64 E VA BEACH 0900 63 69 200/ 2/ 4 1007.5 3/ 7 3/ 7 DUCK 0900 58 69 310/ 11/ 17 1007.7 2 E DUCK 0900 N/A 3/11 2/11 10 NE DUCK 0900 71 N/A 3/ 4 OREGON INLET 0900 60 68 290/ 10/ 12 1008.5 13E OREGON INLT 0900 74 N/A 3/ 4 HATTERAS CG 0900 62 72 320/ 16/ 20 1009.7 DIAMOND BUOY 0900 65 330/ 12/ 16 1008.9 3/ 4 2/ 9 17 S OCRACOKE 0800 VRB 17/ 21 1009.3 CAPE LOOKOUT 0800 61 340/ 19/ 22 1010.2 BEAUFORT LAB 0900 58 70 310/ 8/ 13 1010.4 30 SE NEW RIVER 0900 63 76 330/ 19/ 25 1010.2 5/ 5 2/ 9 5 SE WRIGHTSVLE 0900 57 73 350/ 19/ 23 N/A 225 S CAPE HAT 0828 77 79 290/ 17/ 19 1010.4 4/10 2/10 41 SE CHARLESTON 0900 69 79 360/ 21/ 25 1011.4 4/ 4 2/ 8 $$

USA.gov is the U.S. government's official web portal to all federal, state and local government web resources and services.